Location: Unspecified
(0.0000°N, 0.0000°E)
Time: 15:02:55
(UTC+00:00)

Hubble Space Telescope - Pass Details

Date: 04 August 2020
Orbit: 536 x 540 km, 28.5° (Epoch: 08 August)

Event Time Altitude Azimuth Distance (km) Brightness Sun altitude
Exits shadow 05:13:43 - 300° (WNW) 1,875 3.1 -12.5°
Reaches altitude 10° 05:14:14 10° 306° (NW) 1,779 3.1 -12.4°
Maximum altitude 05:16:04 13° 333° (NNW) 1,614 3.1 -11.9°
Drops below altitude 10° 05:17:55 10° 360° (N) 1,778 3.6 -11.5°
Sets 05:21:20 0° 29° (NNE) 2,667 5.1 -10.7°
